Tracking 30696 objects as of 15-Jun-2025
HD Live streaming from Space Station
objects crossing your sky now

STARLINK-31179

Track STARLINK-31179 now!
10-day predictions
STARLINK-31179 is classified as:


NORAD ID: 58750
Int'l Code: 2024-005Y
Perigee: 565.1 km
Apogee: 567.4 km
Inclination: 43.0 °
Period: 95.8 minutes
Semi major axis: 6937 km
RCS: Unknown
Launch date: January 7, 2024
Source: United States (US)
Launch site: AIR FORCE EASTERN TEST RANGE (AFETR)
Your satellite tracking list
Your tracking list is empty




NASA's NSSDC Master Catalog

Two Line Element Set (TLE):
1 58750U 24005Y   25165.64748040  .00000207  00000-0  30371-4 0  9995
2 58750  43.0030 237.8814 0001612 276.8422  83.2236 15.02530822 80102
Source of the keplerian elements: AFSPC